Flag for Poland Weather past 2 weeks in Tychy, Poland

Now
70 °F

Passing clouds.


Feels Like: 70 °F
Forecast: 51 / 71 °F
Wind: 18 mph from Southwest

Location: Katowice Airport

Current Time: May 30, 2015 at 11:06:46 AM

Latest Report: May 30, 2015 at 10:30 AM


Visibility: N/A

Pressure: 29.86 "Hg

Humidity: 50%

Dew point: 50 °F

Location of TychyLocation

Historic Weather in Tychy — Graph

°F

Tychy temperature yesterday

Maximum temperature yesterday: 70 °F (at 3:00 PM)
Minimum temperature yesterday: 39 °F (at 5:00 AM)
Average temperature yesterday: 57 °F

Past Weeks' High & Low Weather Summary

 TemperatureHumidityPressure
High75 °F (May 19, 1:00 PM)100% (May 20, 4:30 AM)30.24 "Hg (May 20, 4:30 AM)
Low34 °F (May 16, 5:30 AM)30% (May 18, 3:00 PM)29.74 "Hg (May 19, 5:00 AM)
Average55 °F74%29.99 "Hg
* Reported May 15 10:00 AM — May 30 10:00 AM, Tychy, Weather by CustomWeather, © 2015

Note: Actual official high and low records may vary slightly from our data, if they occured in-between our weather recording intervals... More about our weather records

Advertising

Tychy weather history for previous 24 hours

 ConditionsComfort  
Time TempWeatherWind HumidityBarometerVisibility
10:00 AM
Sat, May 30
68 °FSunny.15 mph53%29.86 "Hg10 mi
9:30 AM66 °FSunny.14 mph56%29.86 "Hg10 mi
9:00 AM64 °FSunny.14 mph64%29.86 "Hg10 mi
8:30 AM63 °FSunny.14 mph64%29.86 "Hg10 mi
8:00 AM61 °FSunny.15 mph63%29.86 "Hg10 mi
7:30 AM61 °FSunny.12 mph68%29.86 "Hg10 mi
7:00 AM59 °FPassing clouds.8 mph68%29.86 "HgN/A
6:30 AM59 °FPassing clouds.8 mph68%29.86 "HgN/A
6:00 AM55 °FSunny.8 mph82%29.86 "Hg10 mi
5:30 AM52 °FClear.1 mph94%29.86 "Hg10 mi
5:00 AM54 °FClear.2 mph82%29.86 "Hg10 mi
4:30 AM52 °FClear.6 mph88%29.86 "Hg10 mi
4:00 AM52 °FClear.7 mph88%29.86 "Hg10 mi
3:30 AM54 °FClear.7 mph82%29.86 "Hg10 mi
3:00 AM55 °FPassing clouds.8 mph77%29.86 "HgN/A
2:30 AM57 °FClear.6 mph72%29.86 "Hg10 mi
2:00 AM59 °FClear.8 mph68%29.86 "Hg10 mi
1:30 AM59 °FPassing clouds.9 mph68%29.86 "HgN/A
1:00 AM59 °FPassing clouds.12 mph68%29.86 "HgN/A
12:30 AM61 °FPassing clouds.10 mph63%29.89 "HgN/A
12:00 AM57 °FClear.7 mph72%29.89 "Hg10 mi
11:30 PM
Fri, May 29
55 °FClear.8 mph77%29.89 "Hg10 mi
10:30 PM54 °FClear.3 mph82%29.89 "Hg10 mi
10:00 PM54 °FClear.5 mph88%29.89 "Hg10 mi
9:30 PM57 °FSunny.2 mph77%29.89 "Hg10 mi
9:00 PM64 °FSunny.5 mph56%29.89 "Hg10 mi
8:30 PM64 °FSunny.8 mph56%29.86 "Hg10 mi
8:00 PM66 °FSunny.6 mph52%29.86 "Hg10 mi
7:30 PM66 °FSunny.9 mph52%29.86 "Hg10 mi
7:00 PM68 °FPassing clouds.3 mph46%29.86 "HgN/A
6:30 PM68 °FPassing clouds.3 mph46%29.89 "HgN/A
6:00 PM68 °FPassing clouds.8 mph46%29.89 "HgN/A
5:30 PM70 °FPassing clouds.9 mph43%29.89 "HgN/A
5:00 PM68 °FSunny.9 mph43%29.89 "Hg10 mi
4:30 PM70 °FSunny.12 mph43%29.89 "Hg10 mi
4:00 PM70 °FPassing clouds.12 mph40%29.89 "HgN/A
3:30 PM70 °FPassing clouds.12 mph43%29.89 "HgN/A
3:00 PM70 °FPassing clouds.8 mph46%29.92 "HgN/A
2:30 PM68 °FPassing clouds.7 mph46%29.92 "HgN/A
2:00 PM68 °FPassing clouds.7 mph40%29.92 "HgN/A
1:30 PM66 °FPassing clouds.8 mph46%29.92 "HgN/A
1:00 PM66 °FPassing clouds.9 mph43%29.95 "HgN/A
12:30 PM66 °FPassing clouds.6 mph49%29.95 "HgN/A
12:00 PM66 °FPassing clouds.7 mph43%29.95 "HgN/A
11:30 AM64 °FPassing clouds.7 mph46%29.95 "HgN/A
11:00 AM63 °FPassing clouds.8 mph52%29.95 "HgN/A
Weather by CustomWeather, © 2015

See weather overviewHow to use our weather pages